Theta_e
287 286 286 286 286 286 285 285 286 287 288 288 288 289 290 290 291 292 293 293 294 295 298 299 300 302 302 303 306 307 307 308 307 295 295 294 295 297 298 302 303 306 303
285 285 285 285 285 285 285 286 287 287 289 288 288 288 289 289 290 290 291 293 294 294 299 299 300 302 303 305 306 306 307 308 308 304 289 289 288 288 293 292 292 294 296
285 284 284 284 283 283 284 286 286 287 287 287 288 287 287 288 288 289 290 291 292 293 295 299 301 302 302 304 306 306 307 308 310 304 289 287 287 288 286 286 286 286 289
283 282 282 282 283 283 284 285 286 286 286 287 287 287 288 287 288 289 289 289 291 291 292 293 296 297 298 299 301 305 307 308 308 300 291 287 287 286 287 287 286 286 286
280 280 281 282 283 283 283 284 285 285 285 286 286 286 287 288 288 288 288 288 288 288 288 289 290 288 289 292 296 300 302 304 302 296 290 289 287 286 288 287 285 285 285
279 279 280 281 281 282 282 283 283 284 284 285 286 286 286 287 288 288 287 285 286 285 285 285 287 287 289 290 292 293 294 296 300 296 292 291 290 290 287 288 286 286 284
278 279 280 280 280 281 282 282 282 282 284 284 285 285 285 286 287 287 287 285 285 285 285 285 285 285 286 286 288 288 288 291 292 300 295 293 289 290 289 286 286 285 282
278 280 281 279 278 280 282 281 282 283 283 283 283 285 285 285 287 287 285 285 284 284 284 284 284 284 285 285 284 283 282 284 287 288 291 293 295 292 292 290 286 282 282
278 280 281 281 280 281 281 281 282 282 282 283 282 282 284 284 287 287 285 284 283 283 284 284 284 283 285 285 282 280 279 279 283 286 288 291 293 292 288 287 285 285 280
279 278 279 281 281 281 282 282 283 283 282 283 282 281 281 283 285 285 285 283 281 282 283 284 285 284 285 283 280 279 277 276 278 278 277 277 278 280 282 286 287 285 280
280 280 280 280 281 281 282 282 282 282 282 281 281 281 280 280 283 285 284 282 281 280 279 280 283 285 285 284 283 280 278 278 278 276 275 275 274 274 274 275 276 283 279
279 280 279 279 280 281 280 281 280 281 280 280 279 279 279 279 281 282 283 283 282 279 278 278 279 282 283 283 282 283 282 280 277 275 273 272 272 272 272 273 274 275 275
277 276 277 277 279 279 280 279 280 280 279 279 279 278 278 279 279 280 281 280 280 278 279 280 280 279 278 278 280 279 277 277 275 274 273 272 273 275 276 276 276 275 274
276 276 276 277 278 278 279 280 279 279 279 279 279 279 279 279 279 279 279 278 278 277 277 277 278 278 278 275 274 275 275 274 274 274 273 274 275 274 274 276 275 275 273
276 276 277 277 278 278 279 279 279 279 280 279 279 279 279 277 279 280 279 277 276 276 275 275 274 274 273 272 272 272 272 273 272 273 272 272 271 271 271 274 274 273 271
276 276 277 277 277 278 279 279 281 281 281 281 281 281 281 280 280 280 279 279 279 278 274 272 271 271 270 270 270 269 269 270 271 271 270 270 270 270 270 270 271 271 269
276 276 277 277 277 277 278 277 275 276 278 280 280 280 279 279 279 278 278 278 278 276 272 271 270 270 269 269 268 268 267 268 269 269 269 269 269 268 269 268 268 268 266
276 275 277 277 278 278 278 278 277 275 274 273 274 275 276 277 277 277 276 276 272 271 270 270 269 269 269 268 268 267 267 267 267 267 267 267 267 267 266 266 266 265 265
276 276 277 278 278 277 278 277 276 275 275 274 272 272 269 273 273 275 276 273 270 269 269 268 268 268 267 267 267 266 265 265 266 266 265 266 266 265 263 263 263 263 264
276 275 276 277 276 276 276 275 274 274 274 273 273 274 271 267 273 271 270 271 270 269 269 267 266 266 266 266 266 266 266 265 265 265 265 265 265 265 264 263 263 263 262
276 276 276 276 275 276 275 275 274 274 273 273 274 271 270 272 271 270 269 269 269 268 267 267 266 265 265 264 265 265 264 264 262 262 263 263 262 263 262 262 262 261 260
277 276 275 276 275 275 275 275 275 274 274 273 272 270 273 270 270 269 269 267 267 266 266 265 265 264 264 264 264 264 263 262 261 261 260 259 261 260 260 260 260 258 256
277 275 275 275 275 273 273 274 274 274 273 273 272 270 270 269 268 268 267 266 263 263 262 263 262 260 260 261 263 263 262 261 261 260 260 259 259 259 258 257 255 255 254
276 276 275 275 275 274 273 273 273 271 273 272 271 270 270 269 268 267 266 264 263 262 260 259 260 259 258 260 260 260 259 260 259 258 259 258 257 257 257 254 254 253 253
276 276 275 275 274 273 273 273 272 272 271 271 270 270 269 268 267 266 265 262 260 260 258 258 258 258 257 256 257 258 256 258 257 258 256 257 256 254 253 253 253 252 250
275 275 275 275 273 273 273 273 272 271 271 270 270 270 269 268 267 266 263 261 259 258 258 257 257 257 257 257 257 257 255 258 254 256 255 256 255 253 252 252 251 251 250
Wind_Speed
10 11 12 12 12 12 11 12 11 12 12 12 13 13 13 13 12 13 13 15 16 16 18 16 19 18 13 13 12 12 12 11 11 2 2 5 4 2 2 2 4 5 4
10 11 12 12 11 11 11 11 10 11 10 11 12 12 11 12 12 12 13 12 13 14 15 17 18 13 16 15 11 15 13 13 12 11 2 3 3 3 2 4 5 4 5
9 10 11 11 11 12 12 11 11 11 11 10 10 10 11 10 9 10 11 12 12 11 11 11 15 15 11 10 13 13 12 11 10 3 2 2 4 3 4 5 3 4 5
9 10 10 10 11 11 11 11 11 10 10 9 8 9 10 10 9 9 9 10 8 7 7 6 5 0 2 4 7 8 10 9 6 6 3 3 3 3 3 1 3 5 4
8 8 8 10 10 11 11 11 10 9 9 10 10 10 9 9 6 9 8 8 5 5 4 4 3 5 3 7 3 7 6 4 6 7 4 3 3 4 5 4 4 3 3
6 7 6 9 9 8 9 9 8 9 9 8 8 8 8 6 14 12 8 4 4 4 4 4 5 6 5 10 12 5 3 2 2 4 3 7 5 5 5 8 6 6 3
5 6 6 7 7 8 7 8 8 9 8 9 9 8 7 7 14 12 10 4 4 5 4 4 3 4 4 4 7 10 10 13 8 3 7 4 6 8 10 6 2 7 2
5 5 5 5 6 6 7 8 8 8 8 8 10 9 7 7 14 15 14 8 7 8 8 6 6 5 6 5 6 8 11 15 13 5 4 3 5 9 10 6 9 10 7
5 4 3 6 7 6 7 8 7 7 7 8 9 11 10 10 18 16 11 8 10 11 9 11 9 9 12 11 8 7 8 9 14 26 27 24 18 15 16 13 11 11 5
4 4 3 4 5 6 5 6 6 6 6 6 8 10 14 13 22 20 13 6 9 7 9 11 20 13 17 16 8 7 10 8 8 10 11 17 18 17 21 7 6 8 9
3 4 4 2 4 5 4 4 5 5 5 6 7 8 11 13 14 21 18 7 6 7 8 10 10 22 23 23 20 11 9 7 13 11 10 10 11 11 10 10 11 5 4
4 4 3 2 2 3 3 2 3 4 4 5 6 7 7 8 16 18 20 19 16 9 9 8 10 24 26 24 16 21 18 12 8 10 11 11 10 10 10 11 13 12 12
4 3 3 0 1 2 3 2 2 3 3 4 4 5 5 5 5 14 16 17 19 11 9 15 21 20 21 18 25 24 16 9 9 11 11 10 8 6 7 9 11 14 17
5 4 3 2 2 1 1 2 2 3 3 4 4 4 4 6 7 6 6 6 11 8 9 8 13 16 21 15 11 13 10 10 9 9 9 7 7 8 9 6 9 9 12
5 5 5 3 3 3 2 2 2 3 3 4 3 4 4 5 7 10 8 5 4 5 5 6 7 8 8 8 9 10 9 9 10 8 8 8 8 8 8 6 8 10 9
7 6 6 5 4 4 4 4 10 9 9 8 9 6 5 9 10 11 11 11 11 9 5 6 7 7 7 7 7 7 8 9 8 7 8 8 8 7 8 8 9 9 10
9 9 6 6 6 6 6 5 5 3 8 11 9 8 7 6 8 10 10 14 11 8 6 6 6 6 6 6 7 7 7 6 6 8 7 7 7 7 8 8 8 8 9
9 10 8 7 7 6 6 5 4 4 3 2 5 7 7 6 6 6 5 4 4 7 6 6 6 5 6 6 6 6 6 6 7 7 7 6 7 7 7 8 7 8 7
11 9 8 7 7 6 5 5 4 3 3 2 1 1 3 3 3 6 9 4 4 4 4 5 5 5 5 5 5 6 6 6 6 6 6 6 6 7 8 7 7 8 8
10 12 10 8 7 7 6 5 5 4 3 3 3 1 3 1 1 1 2 2 4 4 4 4 3 3 4 4 4 4 5 5 5 5 5 5 6 6 6 6 5 7 7
10 9 13 8 8 8 7 6 5 5 4 3 3 3 4 1 2 2 2 2 3 3 3 4 3 3 3 2 3 3 4 5 4 3 4 4 4 6 5 6 6 5 5
11 10 10 9 7 8 7 6 6 5 4 4 3 2 5 1 2 2 2 3 3 3 2 2 3 3 2 2 3 4 4 4 3 3 4 3 4 4 4 4 5 4 3
11 12 11 9 8 8 7 6 6 6 5 5 5 4 5 3 2 2 3 3 3 2 1 2 3 3 2 3 3 3 4 4 3 4 4 3 3 3 3 4 3 4 3
12 12 12 10 9 9 8 8 7 6 6 6 5 5 5 5 5 4 4 4 3 3 2 2 3 4 3 2 2 3 3 3 3 4 5 4 4 4 4 4 3 5 4
12 12 12 11 10 9 8 8 8 8 7 6 6 6 5 5 5 5 5 4 3 4 3 2 2 4 5 5 4 5 4 6 5 6 4 5 6 5 4 4 4 3 4
12 11 10 9 9 10 9 9 8 8 8 7 6 6 6 6 6 6 6 5 4 3 5 3 4 5 6 5 6 7 6 7 5 5 4 4 5 4 3 5 6 4 5
Wind_Direction
305 306 304 301 302 299 294 291 285 282 281 281 282 281 276 274 272 267 263 273 269 267 262 240 243 242 238 235 241 241 241 244 236 158 104 43 337 87 315 42 104 163 167
311 309 306 308 309 307 296 292 292 286 292 288 293 291 289 281 280 279 275 279 275 283 279 237 243 243 240 240 239 236 237 231 237 226 202 118 112 326 17 74 38 43 63
312 314 309 315 318 307 305 304 305 302 304 307 304 296 294 289 285 275 272 275 272 280 283 285 253 239 243 254 238 234 234 239 228 159 145 78 46 79 68 46 33 54 54
316 309 314 318 313 310 312 312 314 314 313 309 302 299 301 302 288 286 286 282 282 284 301 318 325 285 306 303 302 299 242 232 208 136 143 109 136 118 92 86 99 31 51
307 299 315 321 316 319 320 322 325 323 325 322 320 321 320 313 309 312 304 297 311 308 322 312 316 39 358 266 260 285 315 300 166 145 130 142 152 117 190 165 103 126 11
297 296 312 324 324 325 327 332 337 341 341 337 337 327 327 322 333 336 334 320 338 348 341 338 348 2 11 39 55 67 44 301 200 152 173 153 177 163 135 150 136 177 153
290 285 335 321 316 333 337 345 350 353 351 349 348 347 350 342 8 17 17 5 7 12 360 1 19 3 15 47 61 59 42 48 33 238 173 174 161 183 126 136 117 61 87
282 296 338 314 306 329 349 354 357 357 357 359 352 356 6 9 25 30 28 25 33 31 27 32 46 36 35 52 66 63 50 47 26 20 41 105 121 144 137 131 119 113 96
256 284 330 325 331 356 1 357 359 5 11 9 8 1 14 24 32 33 30 32 34 27 32 37 39 43 51 65 64 65 65 53 42 55 60 59 76 105 122 120 135 143 108
223 264 278 322 328 347 6 355 354 3 12 12 21 15 18 25 33 32 30 30 36 27 32 35 47 55 63 66 67 66 66 45 47 50 46 44 47 51 47 52 141 140 126
204 248 262 297 315 326 339 357 355 357 357 7 17 21 23 17 24 36 35 26 31 39 37 33 40 51 56 61 63 62 67 59 60 64 66 60 57 52 47 43 41 82 81
200 240 265 309 317 320 320 352 2 9 24 22 23 31 29 24 27 34 39 46 43 42 40 36 35 44 52 56 55 63 69 66 67 68 65 57 56 54 53 61 64 65 58
185 196 235 245 330 339 329 10 31 34 34 35 31 35 24 20 29 32 38 45 48 49 42 49 48 47 48 44 52 49 45 49 59 63 65 63 56 60 81 78 76 76 65
180 180 187 190 138 84 11 9 57 40 56 44 25 38 38 33 25 21 26 31 39 45 43 50 58 59 60 52 44 44 46 45 53 62 61 58 58 54 55 49 75 79 73
180 169 174 162 152 124 72 93 87 65 50 74 57 46 36 39 32 35 41 42 43 36 45 47 43 40 45 43 46 45 41 43 48 46 52 53 52 50 45 37 57 68 84
177 176 176 161 165 159 142 104 70 75 72 76 72 65 70 62 47 43 49 55 54 61 47 55 49 44 46 41 42 47 41 43 44 50 53 54 57 57 60 54 57 68 77
183 171 172 166 169 172 172 171 154 85 57 55 55 67 57 50 39 41 47 58 60 69 71 64 65 57 53 49 48 49 51 37 46 56 59 58 61 62 65 67 68 75 72
183 176 170 173 170 170 177 180 167 172 169 143 49 41 39 37 34 24 23 32 42 42 55 60 59 57 59 57 52 54 52 45 49 57 59 56 58 68 70 67 65 77 78
181 178 179 168 171 166 166 168 171 164 158 141 159 130 14 15 35 43 50 65 81 69 59 60 54 58 61 65 62 57 52 42 44 53 55 58 55 67 68 68 69 69 76
188 177 179 169 162 162 167 173 172 175 174 178 186 153 150 221 171 69 55 78 93 94 92 90 78 73 70 71 72 71 70 59 54 55 56 60 66 72 78 75 66 79 74
177 175 173 173 169 171 168 179 178 174 185 181 172 129 136 125 119 102 106 74 82 93 100 107 106 96 86 84 91 81 82 83 74 74 76 67 60 76 68 75 77 74 78
169 172 177 177 169 169 171 170 176 180 181 173 148 157 169 155 127 121 102 87 69 62 61 101 104 94 94 99 90 101 99 100 84 79 74 67 79 72 77 79 86 91 87
166 166 174 173 171 163 163 171 175 182 181 179 163 168 179 184 166 159 141 123 119 114 65 81 96 97 73 52 50 82 111 116 117 114 117 108 100 98 94 91 86 83 77
168 168 172 174 171 174 175 175 176 182 181 179 175 179 182 181 173 168 143 142 141 129 127 105 108 123 111 110 98 65 67 83 93 105 107 109 105 103 95 98 100 109 106
167 167 171 176 174 176 174 176 175 177 184 179 181 184 179 175 170 161 148 139 141 144 142 137 118 141 159 147 122 117 121 113 110 114 97 103 118 111 109 106 115 98 92
168 168 168 171 175 176 178 178 179 176 181 182 180 179 176 175 169 164 152 153 155 151 151 153 162 161 158 159 162 143 146 139 130 137 121 114 128 122 124 132 141 136 139